Location: Bittkow
(50.3000°N, 19.0000°E)
Time: 04:43:47
(UTC+00:00)

Cosmos 2016 Rocket - Pass Details

Date: 19 September 2020
Orbit: 946 x 1001 km, 83.0° (Epoch: 20 October)

Event Time Altitude Azimuth Distance (km) Brightness Sun altitude
Rises 03:34:38 0° 350° (N) 3,652 7.1 -9.0°
Reaches altitude 10° 03:37:09 10° 352° (N) 2,695 6.4 -8.6°
Maximum altitude 03:43:19 80° 79° (E) 970 4.2 -7.6°
Drops below altitude 10° 03:49:24 10° 168° (SSE) 2,661 6.3 -6.7°
Sets 03:51:53 0° 169° (S) 3,602 7.0 -6.3°
